QPF
0.00 0.00 0.00 0.00 0.00 0.00 0.00 0.00 0.00 0.00 0.00 0.00 0.00 0.01 0.02 0.04 0.04 0.02 0.00 0.00 0.00 0.00 0.00 0.00 0.00 0.00 0.00 0.00 0.00 0.00 0.00 0.00 0.00 0.00 0.00 0.00 0.00 0.00 0.00 0.00 0.02 0.00 0.00 0.00
0.00 0.00 0.00 0.00 0.00 0.00 0.00 0.00 0.00 0.00 0.00 0.00 0.00 0.00 0.00 0.01 0.00 0.00 0.00 0.00 0.00 0.00 0.00 0.00 0.00 0.00 0.00 0.00 0.00 0.00 0.00 0.00 0.00 0.00 0.00 0.00 0.00 0.00 0.02 0.01 0.01 0.03 0.00 0.02
0.00 0.00 0.00 0.00 0.00 0.00 0.00 0.00 0.00 0.00 0.00 0.00 0.00 0.00 0.02 0.03 0.00 0.00 0.00 0.00 0.00 0.00 0.00 0.00 0.00 0.00 0.00 0.00 0.00 0.00 0.00 0.00 0.00 0.00 0.00 0.00 0.00 0.00 0.00 0.00 0.00 0.00 0.00 0.03
0.00 0.00 0.00 0.00 0.00 0.00 0.00 0.00 0.00 0.00 0.00 0.00 0.00 0.00 0.00 0.01 0.00 0.00 0.00 0.00 0.00 0.00 0.00 0.00 0.00 0.00 0.00 0.00 0.00 0.00 0.00 0.00 0.00 0.00 0.00 0.00 0.00 0.00 0.00 0.00 0.00 0.00 0.00 0.00
0.00 0.00 0.00 0.00 0.00 0.00 0.00 0.00 0.00 0.00 0.00 0.00 0.00 0.00 0.00 0.00 0.00 0.00 0.00 0.00 0.00 0.00 0.00 0.00 0.00 0.00 0.00 0.00 0.00 0.00 0.00 0.00 0.00 0.00 0.00 0.00 0.00 0.02 0.09 0.03 0.00 0.00 0.01 0.00
0.00 0.00 0.00 0.00 0.00 0.00 0.00 0.00 0.00 0.00 0.00 0.00 0.00 0.00 0.00 0.00 0.00 0.00 0.00 0.00 0.00 0.00 0.00 0.00 0.00 0.00 0.00 0.00 0.00 0.00 0.00 0.00 0.00 0.00 0.00 0.00 0.00 0.03 0.03 0.04 0.00 0.02 0.02 0.00
0.00 0.00 0.00 0.00 0.00 0.00 0.00 0.00 0.00 0.00 0.00 0.00 0.00 0.00 0.00 0.00 0.00 0.00 0.00 0.00 0.00 0.00 0.00 0.00 0.00 0.00 0.00 0.00 0.00 0.00 0.00 0.00 0.00 0.00 0.00 0.00 0.01 0.01 0.01 0.01 0.01 0.02 0.02 0.00
0.00 0.00 0.00 0.00 0.00 0.00 0.00 0.00 0.00 0.00 0.00 0.00 0.00 0.00 0.00 0.00 0.00 0.00 0.00 0.00 0.00 0.00 0.00 0.00 0.00 0.00 0.00 0.01 0.00 0.00 0.00 0.00 0.00 0.00 0.00 0.00 0.00 0.00 0.01 0.03 0.02 0.01 0.00 0.00
0.00 0.00 0.00 0.00 0.00 0.00 0.00 0.00 0.00 0.00 0.00 0.00 0.00 0.00 0.00 0.00 0.00 0.00 0.00 0.00 0.00 0.00 0.00 0.00 0.00 0.01 0.05 0.02 0.00 0.00 0.00 0.00 0.00 0.00 0.00 0.00 0.00 0.00 0.00 0.05 0.02 0.00 0.01 0.00
0.00 0.00 0.00 0.00 0.00 0.00 0.00 0.00 0.00 0.00 0.00 0.00 0.00 0.00 0.00 0.00 0.00 0.00 0.00 0.00 0.00 0.00 0.00 0.00 0.01 0.06 0.13 0.04 0.00 0.00 0.00 0.00 0.00 0.00 0.00 0.00 0.00 0.00 0.00 0.01 0.03 0.02 0.06 0.00
0.00 0.00 0.00 0.00 0.00 0.00 0.00 0.00 0.00 0.00 0.00 0.00 0.00 0.00 0.00 0.00 0.00 0.00 0.00 0.00 0.00 0.00 0.00 0.00 0.05 0.14 0.17 0.02 0.00 0.00 0.00 0.00 0.00 0.00 0.00 0.00 0.00 0.00 0.00 0.00 0.00 0.00 0.06 0.01
0.00 0.00 0.00 0.00 0.00 0.00 0.00 0.00 0.00 0.00 0.00 0.00 0.00 0.00 0.00 0.00 0.00 0.00 0.00 0.00 0.00 0.00 0.01 0.07 0.16 0.16 0.16 0.02 0.00 0.00 0.00 0.00 0.00 0.00 0.00 0.00 0.00 0.00 0.00 0.00 0.00 0.00 0.03 0.01
0.00 0.00 0.00 0.00 0.00 0.00 0.00 0.00 0.00 0.00 0.00 0.00 0.00 0.00 0.00 0.00 0.00 0.00 0.00 0.00 0.00 0.00 0.00 0.01 0.02 0.03 0.00 0.00 0.00 0.00 0.00 0.00 0.00 0.00 0.00 0.00 0.00 0.00 0.00 0.00 0.00 0.00 0.00 0.00
0.00 0.00 0.00 0.00 0.00 0.00 0.00 0.00 0.00 0.00 0.00 0.00 0.00 0.00 0.00 0.00 0.00 0.00 0.00 0.00 0.00 0.00 0.00 0.00 0.00 0.00 0.00 0.00 0.00 0.00 0.00 0.00 0.00 0.00 0.00 0.00 0.00 0.00 0.00 0.00 0.00 0.00 0.00 0.00
0.00 0.00 0.00 0.00 0.00 0.00 0.00 0.00 0.00 0.00 0.00 0.00 0.00 0.00 0.00 0.00 0.00 0.00 0.00 0.00 0.00 0.02 0.00 0.00 0.00 0.00 0.00 0.00 0.00 0.00 0.00 0.00 0.00 0.00 0.00 0.00 0.00 0.00 0.00 0.00 0.00 0.00 0.00 0.00
0.00 0.00 0.00 0.00 0.00 0.00 0.00 0.00 0.00 0.00 0.00 0.00 0.00 0.00 0.00 0.00 0.00 0.00 0.00 0.00 0.00 0.00 0.02 0.04 0.05 0.03 0.03 0.02 0.01 0.00 0.00 0.00 0.00 0.00 0.00 0.02 0.06 0.00 0.03 0.02 0.02 0.02 0.00 0.00
0.00 0.00 0.00 0.00 0.00 0.00 0.00 0.00 0.00 0.00 0.00 0.00 0.00 0.00 0.00 0.00 0.00 0.00 0.00 0.00 0.00 0.02 0.06 0.12 0.16 0.11 0.06 0.05 0.04 0.03 0.01 0.00 0.01 0.01 0.09 0.23 0.25 0.35 0.28 0.12 0.03 0.09 0.15 0.18
0.00 0.00 0.00 0.00 0.00 0.00 0.00 0.00 0.00 0.00 0.00 0.00 0.00 0.00 0.00 0.00 0.00 0.00 0.00 0.01 0.02 0.07 0.08 0.06 0.07 0.09 0.16 0.21 0.25 0.36 0.22 0.25 0.36 0.45 0.40 0.45 0.46 0.39 0.09 0.01 0.01 0.04 0.02 0.11
0.00 0.00 0.00 0.00 0.00 0.00 0.00 0.00 0.00 0.00 0.00 0.00 0.00 0.00 0.00 0.00 0.00 0.00 0.00 0.00 0.01 0.02 0.01 0.00 0.00 0.03 0.24 0.31 0.25 0.25 0.21 0.21 0.41 0.46 0.44 0.37 0.28 0.21 0.11 0.03 0.01 0.00 0.01 0.02
0.00 0.00 0.00 0.00 0.00 0.00 0.00 0.00 0.00 0.00 0.00 0.00 0.00 0.00 0.00 0.00 0.00 0.00 0.00 0.00 0.00 0.00 0.00 0.00 0.00 0.00 0.04 0.14 0.09 0.07 0.08 0.09 0.12 0.12 0.14 0.13 0.07 0.03 0.01 0.03 0.01 0.00 0.00 0.00
0.00 0.00 0.00 0.00 0.00 0.00 0.00 0.00 0.00 0.00 0.00 0.00 0.00 0.00 0.00 0.00 0.00 0.00 0.00 0.00 0.00 0.00 0.00 0.00 0.00 0.00 0.00 0.03 0.02 0.02 0.02 0.01 0.04 0.05 0.04 0.02 0.00 0.00 0.00 0.00 0.00 0.00 0.00 0.00
0.00 0.00 0.00 0.00 0.00 0.00 0.00 0.00 0.00 0.00 0.00 0.00 0.00 0.00 0.00 0.00 0.00 0.00 0.00 0.00 0.00 0.00 0.00 0.00 0.00 0.00 0.00 0.00 0.00 0.00 0.00 0.01 0.01 0.01 0.01 0.01 0.01 0.00 0.00 0.00 0.00 0.00 0.00 0.00
0.00 0.00 0.00 0.00 0.00 0.00 0.00 0.00 0.00 0.00 0.00 0.00 0.00 0.00 0.00 0.00 0.00 0.00 0.00 0.00 0.00 0.00 0.00 0.00 0.00 0.00 0.00 0.00 0.00 0.00 0.00 0.00 0.00 0.00 0.00 0.00 0.00 0.02 0.00 0.00 0.00 0.00 0.00 0.00
0.00 0.00 0.00 0.00 0.00 0.00 0.00 0.00 0.00 0.00 0.00 0.00 0.00 0.00 0.00 0.00 0.00 0.00 0.00 0.00 0.00 0.00 0.00 0.00 0.00 0.00 0.00 0.00 0.00 0.00 0.00 0.01 0.00 0.00 0.02 0.02 0.00 0.01 0.05 0.04 0.01 0.00 0.00 0.00
0.00 0.00 0.00 0.00 0.00 0.00 0.00 0.00 0.00 0.00 0.00 0.00 0.00 0.00 0.00 0.00 0.00 0.00 0.00 0.00 0.00 0.00 0.00 0.00 0.00 0.00 0.00 0.00 0.00 0.00 0.00 0.01 0.01 0.02 0.05 0.04 0.02 0.02 0.02 0.02 0.03 0.04 0.00 0.00
0.00 0.00 0.00 0.00 0.00 0.00 0.00 0.00 0.00 0.00 0.00 0.00 0.00 0.00 0.00 0.00 0.00 0.00 0.00 0.00 0.00 0.00 0.00 0.00 0.00 0.00 0.00 0.00 0.00 0.00 0.00 0.02 0.03 0.04 0.05 0.03 0.04 0.05 0.03 0.01 0.02 0.02 0.00 0.00
MSLP
1004.06 1004.79 1004.75 1004.09 1004.23 1004.44 1004.72 1005.09 1004.89 1003.90 1004.88 1006.27 1007.89 1008.49 1008.67 1006.27 1008.09 1008.61 1009.52 1009.65 1009.54 1009.42 1009.25 1009.71 1010.07 1010.66 1011.00 1011.41 1011.88 1012.50 1012.98 1013.64 1014.40 1014.97 1015.53 1015.77 1015.85 1015.98 1016.17 1016.09 1015.99 1016.16 1016.36 1016.58
1005.05 1004.82 1003.36 1003.41 1003.00 1003.29 1003.82 1004.35 1004.58 1003.60 1004.37 1005.81 1007.90 1009.00 1007.95 1007.06 1006.77 1007.36 1007.66 1008.09 1008.30 1008.61 1008.80 1008.89 1009.04 1009.42 1009.88 1010.37 1011.00 1011.63 1012.20 1013.02 1013.69 1014.21 1014.38 1014.83 1015.41 1015.83 1015.96 1016.09 1015.92 1015.86 1016.19 1016.42
1005.14 1003.32 1002.65 1002.77 1002.13 1002.19 1002.53 1003.19 1003.35 1004.04 1004.97 1006.48 1007.79 1009.14 1008.50 1007.06 1006.74 1006.89 1006.93 1006.69 1006.98 1006.86 1007.32 1007.52 1007.87 1008.19 1008.78 1009.43 1010.19 1010.96 1011.54 1012.39 1013.11 1013.70 1014.07 1014.88 1015.38 1016.07 1016.38 1016.36 1016.30 1016.03 1016.25 1016.23
1004.20 1002.70 1002.36 1001.83 1001.60 1001.74 1002.15 1001.98 1002.62 1003.42 1004.66 1006.56 1006.81 1007.98 1007.87 1007.40 1006.82 1006.52 1005.91 1005.56 1005.56 1005.86 1006.08 1006.40 1006.81 1007.29 1007.82 1008.50 1009.32 1010.21 1011.25 1012.24 1012.86 1013.16 1013.67 1014.28 1014.80 1015.70 1015.77 1015.76 1015.88 1016.00 1015.76 1016.13
1003.23 1002.39 1001.79 1001.14 1001.07 1001.13 1001.68 1001.55 1002.09 1002.72 1004.06 1005.23 1006.07 1006.78 1006.43 1006.46 1006.51 1005.54 1004.25 1003.71 1003.72 1004.05 1004.56 1005.12 1005.45 1006.11 1006.80 1007.89 1008.72 1009.77 1010.78 1011.74 1012.28 1012.78 1013.17 1013.81 1014.57 1015.06 1015.32 1015.48 1015.87 1015.93 1015.89 1015.62
1002.68 1001.55 1001.16 1000.56 1000.32 1000.58 1001.00 1001.62 1002.02 1003.33 1004.45 1005.50 1005.15 1005.69 1005.86 1005.60 1004.30 1003.85 1002.89 1002.21 1002.26 1002.89 1003.43 1004.05 1004.77 1005.58 1006.55 1007.42 1008.49 1009.58 1010.47 1011.26 1011.80 1012.33 1012.86 1013.48 1014.17 1014.75 1015.33 1015.61 1015.90 1015.93 1015.77 1015.71
1002.55 1001.53 1000.73 1000.35 1000.57 1000.82 1001.70 1003.10 1004.07 1005.14 1005.76 1005.90 1004.88 1005.02 1003.82 1002.92 1002.65 1002.19 1001.78 1001.68 1001.56 1001.76 1002.55 1003.33 1004.15 1004.92 1006.01 1006.91 1007.93 1009.13 1010.03 1010.88 1011.40 1011.94 1012.46 1013.04 1013.59 1014.09 1014.54 1015.15 1015.52 1015.63 1015.49 1015.34
1003.76 1002.28 1001.06 1000.06 1000.54 1001.07 1002.07 1003.36 1004.98 1006.36 1007.03 1006.24 1005.38 1004.46 1002.91 1001.88 1001.69 1002.00 1001.98 1002.36 1001.62 1001.74 1001.86 1002.56 1003.30 1004.15 1005.41 1006.82 1007.63 1008.59 1009.48 1010.16 1010.84 1011.38 1011.88 1012.34 1012.91 1013.55 1014.09 1014.46 1014.77 1014.67 1014.83 1014.90
1003.32 1002.79 1001.51 1000.69 1000.31 1000.82 1001.93 1003.10 1003.96 1005.79 1006.88 1006.66 1006.16 1004.59 1002.74 1002.23 1002.30 1002.08 1002.37 1002.08 1002.56 1002.54 1002.18 1002.79 1003.19 1004.68 1006.08 1006.80 1007.52 1007.81 1008.81 1009.33 1009.97 1010.38 1011.01 1011.71 1012.14 1012.66 1013.30 1013.80 1014.01 1014.08 1014.26 1014.37
1003.43 1003.56 1002.71 1001.74 1000.91 1000.98 1001.62 1002.61 1004.18 1006.00 1007.69 1007.97 1006.68 1005.25 1004.14 1003.11 1002.99 1002.85 1003.40 1003.45 1003.47 1003.40 1003.09 1004.05 1005.33 1006.08 1006.15 1006.44 1006.79 1007.33 1007.61 1008.24 1008.67 1009.24 1009.78 1010.43 1010.96 1011.45 1012.14 1012.82 1013.14 1013.22 1013.54 1013.72
1003.68 1004.25 1004.08 1003.20 1003.04 1002.55 1002.57 1003.20 1004.75 1006.43 1007.45 1008.02 1007.38 1006.16 1004.26 1003.54 1003.14 1003.53 1004.14 1004.04 1004.26 1004.91 1005.17 1005.67 1006.49 1007.66 1008.47 1007.36 1007.36 1007.22 1007.27 1007.48 1008.19 1008.62 1009.08 1009.56 1010.24 1010.71 1011.29 1011.83 1012.10 1012.38 1012.60 1012.92
1004.15 1005.14 1005.48 1004.66 1003.61 1003.19 1003.38 1004.01 1004.84 1006.64 1007.74 1007.84 1007.25 1006.09 1004.59 1004.11 1003.43 1003.24 1004.18 1004.54 1005.13 1005.26 1005.40 1005.38 1005.58 1005.49 1007.06 1007.95 1007.97 1007.99 1007.08 1007.26 1007.31 1007.72 1008.45 1008.96 1009.30 1010.08 1010.58 1010.91 1011.09 1011.46 1011.79 1011.93
1004.20 1005.72 1006.28 1005.36 1004.41 1003.43 1004.18 1004.43 1004.78 1005.82 1006.68 1007.50 1007.31 1006.19 1004.52 1004.34 1003.78 1003.38 1003.98 1004.52 1005.41 1006.12 1006.00 1006.26 1006.26 1005.81 1004.92 1005.75 1006.59 1005.87 1006.31 1006.82 1007.20 1007.49 1007.77 1008.51 1009.07 1009.47 1009.65 1010.05 1010.34 1010.45 1010.85 1011.08
1004.24 1006.31 1007.00 1007.03 1006.57 1005.83 1005.21 1004.62 1004.65 1005.36 1006.40 1007.22 1006.60 1005.66 1004.76 1004.33 1004.01 1003.61 1004.22 1004.77 1005.42 1006.27 1006.60 1006.50 1006.66 1006.17 1005.62 1005.49 1006.15 1006.01 1005.80 1006.65 1007.15 1006.88 1007.07 1007.67 1008.22 1008.42 1008.61 1008.96 1009.31 1009.67 1009.92 1010.34
1005.18 1006.40 1006.84 1006.71 1006.37 1005.69 1005.25 1004.82 1004.51 1004.90 1005.17 1005.62 1005.25 1005.67 1005.35 1004.77 1004.00 1004.03 1004.49 1005.00 1005.61 1006.25 1006.80 1006.97 1006.83 1006.08 1005.50 1005.36 1005.32 1006.29 1006.13 1006.59 1006.91 1007.09 1007.08 1006.90 1007.07 1007.50 1008.00 1008.02 1008.25 1008.67 1009.29 1009.50
1006.03 1006.74 1007.14 1007.22 1006.27 1005.72 1005.26 1004.61 1004.27 1004.20 1004.29 1004.61 1005.00 1006.05 1006.22 1005.04 1004.70 1005.25 1005.42 1005.48 1006.16 1007.39 1007.85 1007.50 1007.19 1007.24 1007.32 1007.20 1007.09 1006.71 1007.61 1007.85 1007.36 1006.94 1006.73 1006.47 1006.64 1006.91 1007.46 1007.57 1007.51 1008.01 1008.57 1009.12
1006.36 1007.07 1007.89 1007.99 1006.96 1006.26 1005.41 1004.23 1004.06 1004.05 1004.25 1004.54 1005.68 1006.53 1006.47 1005.56 1005.83 1006.60 1006.89 1007.25 1007.56 1007.56 1007.83 1007.69 1007.74 1007.44 1007.19 1008.12 1009.31 1009.63 1009.96 1009.88 1008.63 1007.03 1006.52 1005.33 1005.62 1006.82 1007.87 1007.41 1007.56 1008.33 1008.20 1008.52
1006.13 1007.32 1008.05 1008.54 1007.75 1007.04 1005.09 1003.83 1003.60 1004.64 1005.07 1005.08 1005.74 1006.73 1006.56 1006.59 1007.10 1007.39 1007.61 1008.12 1008.05 1008.06 1008.29 1008.34 1008.47 1008.17 1008.05 1008.55 1009.88 1010.75 1009.93 1009.87 1009.38 1008.91 1007.93 1007.88 1008.46 1007.64 1006.73 1008.85 1008.60 1008.59 1008.23 1008.20
1005.52 1006.95 1008.32 1008.67 1008.19 1006.90 1004.84 1003.81 1003.63 1004.35 1005.88 1005.97 1006.03 1006.55 1006.73 1006.86 1007.06 1007.70 1007.73 1008.12 1007.59 1007.94 1008.12 1008.51 1008.97 1008.89 1009.10 1008.11 1008.89 1009.46 1007.14 1008.37 1008.07 1007.93 1007.93 1007.27 1007.81 1007.68 1008.88 1009.13 1008.32 1008.02 1008.23 1008.34
1005.07 1005.94 1007.45 1008.54 1008.21 1006.97 1005.17 1003.86 1003.55 1003.91 1005.97 1006.26 1006.16 1006.82 1007.04 1006.88 1007.94 1008.28 1007.89 1007.84 1008.05 1008.24 1007.91 1007.88 1008.73 1009.55 1008.97 1009.19 1008.45 1007.30 1006.72 1006.68 1007.20 1006.87 1006.65 1006.61 1006.58 1006.25 1007.33 1008.45 1008.86 1007.60 1007.43 1007.39
1006.36 1007.03 1007.35 1007.71 1007.35 1005.98 1004.46 1003.75 1003.60 1004.71 1006.64 1006.49 1006.43 1006.85 1007.06 1007.50 1008.03 1007.99 1007.85 1007.98 1008.02 1007.94 1007.73 1007.39 1007.94 1008.64 1009.00 1008.67 1007.69 1007.22 1006.44 1006.05 1006.03 1006.21 1005.89 1005.79 1005.64 1006.01 1006.43 1006.82 1007.18 1007.07 1007.31 1007.36
1006.76 1006.90 1007.27 1007.32 1006.78 1005.48 1003.90 1003.93 1004.55 1005.57 1006.18 1006.23 1006.53 1006.90 1007.34 1007.67 1007.87 1007.80 1007.64 1007.68 1008.01 1008.40 1008.33 1008.04 1007.78 1008.44 1008.53 1008.48 1008.16 1007.49 1007.01 1006.29 1006.16 1006.16 1006.05 1005.55 1005.47 1005.32 1005.55 1005.74 1006.19 1006.60 1007.27 1007.12
1006.20 1005.89 1005.78 1005.85 1005.19 1004.39 1003.68 1003.76 1004.26 1004.90 1005.59 1006.19 1006.38 1006.77 1007.04 1007.59 1008.12 1008.19 1008.28 1008.00 1007.83 1008.19 1008.57 1008.77 1008.64 1008.28 1007.98 1007.94 1008.31 1008.06 1007.10 1006.68 1006.25 1006.03 1005.95 1006.19 1005.81 1005.16 1004.92 1005.26 1005.98 1006.47 1006.69 1007.12
1005.70 1005.01 1005.40 1005.34 1005.33 1004.76 1004.35 1004.23 1004.31 1004.73 1005.41 1005.90 1006.13 1006.53 1006.98 1007.83 1008.16 1008.40 1008.40 1008.51 1008.71 1008.76 1008.90 1009.03 1009.01 1009.08 1009.10 1008.61 1008.19 1007.83 1007.43 1007.25 1006.81 1006.51 1006.04 1005.47 1005.65 1005.42 1005.36 1005.57 1005.55 1005.34 1005.93 1006.18
1006.06 1005.49 1005.47 1005.53 1005.19 1005.11 1005.09 1004.72 1004.80 1005.14 1005.31 1005.68 1006.12 1006.59 1007.12 1007.50 1007.97 1008.32 1008.74 1008.93 1009.01 1008.98 1009.01 1009.19 1009.48 1009.50 1009.40 1009.17 1008.87 1008.27 1007.70 1007.51 1007.37 1007.00 1006.45 1005.83 1005.73 1005.47 1005.30 1005.00 1004.35 1004.46 1004.76 1005.26
1005.36 1005.31 1005.52 1005.29 1004.80 1004.66 1005.01 1004.95 1004.84 1005.18 1005.41 1005.73 1006.20 1006.73 1006.92 1007.36 1008.03 1008.46 1008.99 1009.21 1009.30 1009.40 1009.51 1009.61 1009.70 1009.73 1009.58 1009.13 1008.71 1008.36 1008.15 1007.88 1007.74 1007.42 1007.13 1006.75 1006.26 1005.81 1005.34 1005.04 1004.62 1004.36 1004.40 1004.38
Thickness
5838 5816 5801 5822 5826 5831 5823 5813 5817 5837 5842 5822 5800 5798 5810 5839 5827 5821 5812 5809 5810 5814 5823 5823 5820 5817 5815 5813 5810 5804 5802 5799 5794 5788 5783 5780 5780 5781 5782 5783 5784 5785 5786 5783
5811 5797 5839 5841 5842 5835 5823 5815 5812 5835 5843 5824 5803 5791 5815 5832 5835 5836 5829 5824 5823 5823 5825 5827 5831 5830 5825 5822 5818 5812 5807 5802 5797 5793 5793 5788 5784 5780 5780 5781 5784 5784 5784 5783
5797 5826 5849 5843 5845 5836 5830 5825 5827 5823 5824 5818 5804 5785 5800 5828 5836 5840 5840 5839 5837 5838 5835 5838 5838 5838 5835 5828 5821 5815 5812 5807 5801 5796 5793 5787 5783 5776 5773 5776 5779 5782 5780 5782
5815 5842 5840 5841 5839 5835 5814 5847 5843 5841 5812 5773 5818 5765 5793 5808 5821 5830 5839 5844 5843 5846 5849 5846 5844 5842 5840 5832 5828 5821 5812 5804 5800 5800 5795 5788 5782 5773 5777 5779 5779 5779 5782 5778
5817 5836 5835 5836 5840 5850 5825 5853 5846 5846 5826 5811 5807 5781 5799 5811 5804 5819 5842 5854 5859 5858 5856 5853 5854 5851 5849 5840 5832 5823 5814 5806 5805 5802 5799 5791 5781 5780 5780 5781 5777 5776 5777 5777
5830 5857 5856 5849 5862 5861 5860 5843 5837 5818 5803 5778 5807 5794 5791 5798 5821 5831 5853 5865 5868 5865 5865 5862 5860 5857 5847 5843 5835 5824 5817 5810 5808 5804 5800 5793 5788 5782 5778 5776 5775 5774 5776 5777
5822 5835 5855 5866 5844 5849 5834 5802 5766 5774 5760 5767 5809 5796 5807 5839 5844 5852 5858 5863 5869 5872 5867 5865 5859 5855 5848 5841 5835 5827 5820 5811 5809 5805 5801 5797 5792 5789 5784 5779 5775 5775 5777 5778
5790 5789 5842 5866 5847 5831 5831 5810 5767 5765 5753 5771 5803 5796 5819 5856 5862 5861 5864 5863 5869 5869 5871 5867 5865 5860 5851 5839 5834 5828 5821 5817 5812 5807 5803 5802 5798 5793 5788 5784 5783 5784 5782 5782
5798 5802 5846 5860 5867 5852 5834 5806 5826 5786 5779 5770 5773 5811 5843 5847 5851 5858 5858 5861 5856 5855 5867 5864 5865 5852 5841 5839 5830 5831 5824 5822 5819 5815 5811 5806 5803 5799 5792 5789 5789 5789 5787 5787
5824 5796 5831 5844 5859 5855 5840 5842 5796 5778 5762 5756 5772 5792 5788 5824 5831 5845 5839 5843 5846 5851 5856 5846 5835 5831 5836 5838 5839 5835 5835 5829 5827 5824 5820 5816 5813 5809 5802 5796 5793 5792 5790 5791
5825 5805 5808 5830 5819 5815 5818 5807 5800 5785 5770 5746 5747 5767 5816 5823 5836 5834 5832 5838 5839 5833 5833 5829 5824 5812 5806 5826 5830 5833 5835 5835 5829 5825 5823 5819 5815 5814 5809 5803 5802 5800 5796 5794
5825 5791 5781 5804 5827 5838 5832 5814 5792 5761 5771 5760 5752 5769 5827 5832 5838 5841 5832 5830 5827 5829 5831 5833 5833 5832 5816 5814 5817 5818 5833 5832 5834 5830 5823 5820 5820 5813 5810 5808 5808 5806 5803 5801
5824 5782 5754 5775 5800 5823 5805 5810 5811 5785 5772 5767 5753 5762 5827 5821 5831 5838 5832 5831 5826 5822 5826 5823 5824 5829 5837 5825 5822 5829 5833 5831 5826 5826 5824 5816 5814 5812 5811 5809 5808 5811 5808 5807
5821 5779 5767 5746 5769 5787 5789 5801 5809 5788 5767 5759 5774 5793 5810 5818 5820 5831 5828 5829 5826 5820 5817 5817 5818 5824 5829 5830 5815 5826 5829 5825 5818 5821 5825 5820 5813 5812 5812 5813 5812 5810 5811 5808
5808 5782 5789 5788 5787 5798 5798 5797 5801 5797 5796 5783 5791 5786 5798 5808 5819 5823 5826 5824 5820 5814 5812 5812 5812 5820 5826 5827 5829 5823 5824 5818 5816 5811 5816 5822 5822 5816 5811 5812 5812 5810 5807 5810
5797 5779 5787 5776 5792 5791 5788 5797 5799 5801 5805 5802 5794 5779 5792 5812 5817 5810 5807 5815 5809 5797 5797 5803 5807 5807 5807 5810 5808 5813 5806 5805 5812 5814 5812 5816 5813 5811 5806 5807 5810 5809 5804 5803
5789 5775 5761 5751 5774 5776 5763 5788 5794 5796 5800 5790 5767 5785 5795 5804 5806 5797 5795 5791 5791 5792 5789 5795 5797 5798 5800 5795 5783 5777 5770 5773 5787 5801 5804 5817 5814 5802 5788 5794 5801 5795 5800 5798
5786 5768 5749 5745 5758 5732 5775 5801 5805 5786 5788 5789 5786 5784 5792 5794 5792 5790 5791 5779 5783 5785 5780 5781 5780 5785 5789 5778 5762 5759 5768 5766 5773 5773 5777 5775 5773 5781 5758 5736 5771 5785 5794 5793
5793 5764 5749 5739 5731 5757 5781 5796 5796 5780 5769 5787 5783 5787 5789 5792 5792 5784 5789 5781 5787 5781 5775 5770 5763 5767 5768 5771 5758 5760 5784 5775 5776 5766 5750 5740 5732 5757 5749 5751 5773 5785 5785 5784
5784 5782 5760 5731 5735 5729 5762 5797 5813 5800 5744 5785 5787 5780 5778 5782 5749 5759 5781 5780 5776 5773 5773 5771 5759 5750 5759 5759 5768 5781 5787 5783 5774 5778 5777 5777 5773 5778 5769 5759 5757 5775 5779 5783
5757 5753 5747 5732 5733 5749 5782 5800 5807 5760 5746 5782 5783 5779 5775 5765 5763 5771 5777 5774 5772 5771 5769 5772 5762 5754 5750 5755 5765 5768 5774 5777 5778 5774 5777 5777 5778 5771 5772 5769 5765 5767 5767 5770
5747 5737 5736 5732 5733 5735 5798 5793 5770 5769 5777 5778 5778 5776 5771 5768 5765 5765 5767 5767 5764 5756 5755 5755 5753 5744 5743 5742 5746 5750 5752 5763 5765 5762 5761 5767 5770 5766 5770 5769 5766 5764 5757 5761
5745 5753 5748 5750 5745 5777 5793 5786 5788 5783 5777 5775 5773 5773 5770 5763 5756 5756 5753 5757 5760 5755 5747 5740 5735 5734 5733 5735 5726 5726 5736 5742 5744 5745 5748 5743 5747 5756 5762 5759 5753 5748 5745 5744
5758 5773 5755 5759 5765 5770 5776 5779 5783 5782 5776 5775 5775 5769 5763 5751 5750 5746 5745 5743 5742 5740 5734 5729 5721 5713 5708 5712 5717 5717 5721 5723 5727 5728 5731 5736 5734 5734 5737 5739 5741 5742 5739 5742
5747 5758 5752 5749 5761 5760 5766 5770 5772 5771 5771 5769 5767 5761 5753 5749 5745 5743 5735 5732 5729 5727 5725 5719 5711 5706 5703 5699 5698 5704 5708 5707 5705 5708 5712 5715 5714 5717 5720 5726 5734 5734 5735 5733
5750 5744 5730 5729 5755 5756 5757 5766 5771 5767 5765 5763 5757 5752 5752 5748 5736 5731 5723 5720 5718 5714 5709 5704 5700 5695 5692 5692 5691 5688 5684 5682 5683 5685 5685 5685 5687 5693 5698 5705 5711 5715 5716 5720